Theta_e
338 337 337 337 336 336 336 336 336 336 336 336 336 336 337 336 337 336 337 338 337 338 338 337 338 338 338 338 338 338 338 338 337 337 337 336 336 336 336 336 336 336 337 336 336 337 337 336 336 335 335 334 333 332 332 332 332 331 331 330 330 330 329 329 330 330 330 330 330 329 329 332 333 331 328 327 328 329 327 327 325 324 323 323 323
338 337 336 336 336 336 336 336 336 336 336 337 336 336 337 336 337 336 337 337 337 337 337 337 338 337 338 337 337 337 337 337 337 336 336 336 335 336 336 336 336 336 336 336 335 335 335 335 334 333 333 332 331 331 331 330 329 329 329 329 328 328 327 326 328 329 329 328 329 330 330 331 332 330 327 325 326 327 326 324 323 321 320 320 320
339 338 337 336 336 336 336 336 336 336 336 336 336 336 336 336 337 336 336 337 337 337 337 337 338 337 338 338 337 337 336 336 336 335 335 335 335 334 335 334 335 334 334 334 334 334 333 333 332 331 331 330 330 330 329 327 326 326 327 327 327 326 325 324 325 326 326 327 328 331 332 332 332 329 324 324 325 326 325 323 321 318 317 317 317
340 338 337 336 336 336 336 336 335 335 336 336 336 336 336 336 336 337 336 336 337 337 337 338 337 338 338 337 337 336 335 335 334 334 334 334 333 333 333 333 333 333 333 333 333 332 332 331 330 330 329 328 328 327 325 324 324 323 324 324 325 325 324 323 322 323 324 325 327 329 328 329 331 326 322 323 324 324 323 321 319 316 314 314 314
339 339 338 337 337 337 336 336 336 335 335 336 335 336 336 336 336 337 337 337 337 337 337 338 337 337 337 336 336 335 333 332 332 332 331 332 331 330 330 331 332 331 331 330 330 330 329 328 328 327 326 325 325 324 323 322 321 321 321 322 322 323 322 321 321 320 320 322 323 325 326 326 327 323 322 325 323 322 321 319 318 314 313 313 312
338 338 338 337 336 336 336 336 335 335 335 335 335 336 336 336 336 336 337 337 337 337 338 338 338 337 336 336 335 333 331 330 330 329 329 329 329 328 328 329 329 329 328 327 327 327 327 326 325 324 323 322 322 321 321 320 320 319 319 320 320 320 320 319 318 318 318 319 319 320 321 321 320 319 321 324 321 320 321 319 315 312 311 312 310
338 338 337 337 336 336 336 335 335 335 335 335 335 336 336 336 335 335 336 337 337 337 336 336 337 337 336 335 334 332 331 328 327 328 328 327 326 326 326 326 326 326 325 324 324 324 324 323 323 322 321 321 320 319 319 318 318 317 317 317 317 317 317 316 315 316 316 316 317 317 315 314 314 314 316 318 318 319 318 315 313 310 309 310 309
339 339 338 337 336 336 336 335 335 335 336 336 336 336 336 336 336 336 335 335 335 335 334 334 336 336 335 335 333 332 330 327 326 327 327 326 325 325 324 323 323 323 323 322 322 322 321 321 320 320 319 319 318 318 317 317 316 316 315 315 314 314 314 314 313 313 313 312 313 314 312 311 311 310 310 313 315 315 314 311 309 308 307 306 306
339 339 338 337 336 336 336 335 335 335 336 336 336 336 337 336 336 336 333 332 333 334 333 333 335 336 335 335 333 331 329 327 326 326 325 325 324 323 322 321 320 320 320 320 319 319 319 319 319 318 318 317 316 316 315 316 315 314 313 313 312 312 312 312 311 310 310 310 310 310 309 309 308 308 307 308 310 311 311 309 306 305 304 303 303
338 337 337 336 336 336 336 335 335 335 336 336 336 336 336 336 336 335 333 331 333 334 333 333 333 334 334 334 332 330 328 326 325 324 324 324 323 321 320 319 318 318 317 317 317 317 317 317 317 316 316 315 314 314 314 314 313 312 312 311 311 310 310 310 309 309 308 307 307 307 306 306 306 306 305 305 306 307 306 305 304 303 302 302 302
338 337 337 336 336 335 335 335 335 335 335 335 336 335 335 335 335 335 333 331 332 332 333 332 331 332 334 334 332 329 327 325 324 323 322 322 321 319 318 317 317 316 316 315 315 315 315 315 315 314 314 313 313 313 313 312 311 311 310 309 310 310 309 308 307 307 306 306 305 304 303 303 303 303 302 303 303 303 303 302 302 301 301 301 301
338 338 337 336 335 335 335 335 335 335 335 335 335 335 334 334 334 333 331 331 332 332 333 333 331 332 333 333 331 329 327 326 324 322 321 321 319 317 316 316 315 314 314 314 314 314 314 314 314 313 313 312 312 312 312 311 310 309 309 309 309 309 307 307 306 305 304 304 303 302 301 301 301 301 301 301 301 301 301 300 300 300 300 300 299
338 338 337 336 335 335 335 335 334 334 334 334 334 334 333 333 333 332 330 331 332 332 333 332 331 332 333 333 331 328 326 326 325 323 321 320 318 316 316 314 314 313 312 312 312 312 312 313 312 312 311 311 311 311 310 310 309 308 308 308 308 307 306 305 304 304 303 302 301 300 299 299 299 299 299 299 299 299 299 299 299 299 299 299 299
337 337 337 336 335 335 334 334 334 334 333 333 333 333 332 332 332 331 331 331 332 332 332 331 332 332 333 332 330 328 326 325 324 322 320 319 317 316 315 314 313 311 311 310 310 311 311 311 311 310 310 311 310 310 309 308 308 307 307 307 306 305 305 304 302 301 301 299 298 298 297 297 298 298 298 298 298 298 298 298 298 298 298 299 298
336 337 337 336 335 334 334 334 333 332 331 331 330 331 331 331 331 331 331 331 331 331 331 332 332 332 331 331 329 327 326 325 323 321 319 318 317 316 314 313 311 310 309 309 309 310 310 310 310 309 309 309 309 309 308 307 307 306 306 305 304 304 303 301 299 298 298 297 297 297 297 297 297 297 297 297 297 297 297 297 298 298 298 298 298
336 336 337 335 334 334 333 332 332 330 329 328 328 329 329 329 330 330 330 330 331 330 331 331 331 330 330 329 327 326 325 323 321 319 318 317 316 315 312 311 310 309 308 308 309 309 309 309 309 308 308 308 308 307 307 306 306 305 305 304 303 302 300 298 296 296 296 296 296 297 297 296 296 297 296 296 296 297 297 297 297 297 298 298 298
336 336 336 335 334 333 332 331 330 328 327 327 327 327 328 329 329 328 328 328 329 329 329 330 329 328 327 326 325 324 323 322 320 318 316 315 314 313 311 309 308 308 307 308 308 308 308 308 308 308 307 307 307 306 306 306 305 304 304 303 301 299 297 296 295 296 296 296 296 296 297 297 296 296 296 296 296 296 296 297 297 297 298 298 297
335 335 335 334 333 332 331 330 328 327 326 326 325 325 326 328 328 327 326 326 326 327 327 327 327 325 324 323 323 323 322 320 318 316 315 314 312 311 310 309 308 307 307 307 307 307 307 307 307 307 306 306 306 305 305 305 304 303 302 301 300 299 296 295 295 296 296 296 296 296 297 297 296 296 296 295 295 295 296 296 296 296 297 297 296
336 335 334 333 332 332 330 328 327 325 325 324 323 323 324 325 327 327 325 324 324 324 324 324 324 323 322 322 322 321 320 318 317 315 314 313 311 310 309 308 307 306 306 306 307 307 306 306 306 306 306 305 305 304 304 304 303 302 301 301 300 298 296 295 296 296 296 296 296 296 296 296 296 295 295 295 295 295 295 295 295 296 296 296 296
336 335 334 332 331 331 329 327 325 324 323 323 323 323 323 323 324 324 323 322 323 323 322 322 322 321 320 320 320 319 318 317 315 314 313 312 311 310 308 307 306 305 305 305 306 306 306 305 305 305 305 305 304 304 303 303 302 301 301 300 300 298 296 295 296 296 296 296 296 296 296 296 296 296 296 296 295 295 295 295 295 295 296 296 296
335 334 333 332 331 330 328 325 324 322 321 321 322 322 322 322 322 323 322 321 321 321 321 321 320 320 320 319 318 317 316 315 314 314 313 311 309 308 307 306 305 305 304 304 305 305 306 305 304 305 304 304 304 303 302 302 302 301 301 300 299 297 296 296 296 295 296 296 296 296 296 296 296 296 296 296 296 296 296 296 296 296 296 296 296
335 333 332 331 330 328 326 324 322 321 320 320 321 321 321 321 321 321 320 320 320 320 320 320 319 319 318 317 317 316 315 314 313 313 311 309 308 307 306 305 304 304 304 303 303 305 305 305 304 304 304 304 303 303 302 302 301 301 300 300 299 297 296 296 296 295 295 296 296 295 295 295 295 296 296 296 296 296 296 296 296 296 296 296 296
334 332 331 330 329 327 325 323 321 320 319 319 319 319 319 320 319 319 319 319 319 319 319 318 318 317 316 316 315 315 314 314 312 311 309 308 307 305 305 305 304 303 303 302 302 304 305 305 304 304 304 303 303 302 302 301 301 301 300 299 298 296 296 296 296 295 295 295 295 295 295 295 295 295 295 295 296 296 296 296 296 296 296 296 296
333 331 331 329 327 326 324 322 321 320 319 318 318 318 318 318 318 318 318 317 317 317 317 317 316 315 315 314 314 313 313 312 310 308 307 306 305 304 304 304 303 301 300 299 300 303 305 305 304 304 304 303 303 302 302 301 301 300 300 299 297 296 296 296 296 295 295 295 295 295 295 295 295 295 295 295 295 295 295 296 296 296 296 296 296
332 331 330 328 327 325 323 322 321 319 318 317 317 317 317 317 317 317 317 316 316 316 316 315 315 314 313 312 312 312 311 309 308 307 306 305 304 304 304 303 302 299 297 296 299 303 304 304 304 304 303 303 302 302 301 301 301 300 300 299 298 297 297 296 296 295 295 295 295 295 295 295 295 295 295 295 295 295 295 295 295 295 295 296 296
332 331 330 328 326 324 323 322 320 319 318 317 316 316 316 316 316 316 316 315 315 315 314 314 314 313 312 312 311 310 309 307 306 305 305 304 303 303 303 302 300 297 295 295 298 302 304 304 304 304 303 303 302 302 301 301 300 300 299 298 298 297 297 297 296 295 295 295 295 295 295 295 295 295 295 295 295 295 295 295 295 295 295 295 295
331 331 329 328 326 324 322 322 320 319 318 316 315 315 315 316 315 315 315 314 314 314 313 313 313 312 312 312 311 310 308 307 306 305 304 303 303 303 302 300 298 296 295 296 299 302 304 304 304 303 303 303 302 301 301 301 300 300 299 298 298 298 297 297 296 295 295 295 295 295 295 295 295 295 295 295 295 295 295 295 295 295 295 294 294
331 330 329 328 326 324 322 321 320 318 317 316 315 315 315 315 315 315 314 314 313 313 313 313 312 312 312 311 310 308 307 306 305 304 304 303 303 301 299 297 295 295 295 296 299 302 303 303 303 303 303 302 302 301 300 300 300 299 299 299 298 298 297 297 296 295 295 295 295 295 295 295 295 295 295 295 295 295 295 295 295 294 294 294 294
330 329 329 328 326 324 322 320 319 317 316 315 314 314 314 314 314 314 314 313 313 313 312 312 312 312 311 310 309 308 307 306 305 304 303 302 301 299 296 295 294 294 295 296 299 301 303 303 303 303 303 302 302 301 300 300 300 299 299 299 299 298 298 297 296 295 295 295 295 295 295 295 295 295 295 295 295 295 295 295 295 294 294 294 294
330 329 328 327 325 323 321 320 318 317 316 315 313 313 313 313 313 313 313 312 312 312 312 312 311 311 310 309 308 307 306 305 304 303 302 302 300 297 295 294 294 294 295 296 298 300 302 302 302 302 302 302 302 301 300 300 299 299 299 299 299 298 298 297 296 296 295 295 295 295 295 295 295 295 295 295 295 295 295 295 294 294 294 294 294
330 329 328 327 325 323 321 320 318 317 316 314 313 313 312 313 313 313 312 312 312 312 311 311 310 310 309 309 308 307 306 305 304 302 302 302 300 297 294 294 294 294 294 296 298 300 301 301 302 302 302 302 301 301 300 300 299 299 299 299 299 299 297 296 296 296 295 295 295 295 295 295 295 295 295 295 295 295 295 295 294 294 294 294 294
329 328 328 326 324 322 321 320 318 317 315 314 313 312 312 312 312 312 312 311 311 311 310 310 310 309 308 308 307 306 305 305 304 302 302 302 300 296 294 293 293 293 294 295 297 299 300 301 301 301 301 301 301 301 300 300 300 299 299 299 299 299 298 296 296 297 296 295 295 295 295 295 295 295 295 295 295 295 295 294 294 294 294 293 293
329 328 327 326 324 322 321 320 318 316 315 314 313 313 312 312 312 312 311 311 311 310 310 309 309 308 307 307 306 306 305 304 303 303 302 301 298 295 294 293 293 293 293 294 296 298 299 300 300 301 301 300 301 301 300 300 300 299 299 299 299 298 298 297 297 297 297 296 295 295 295 295 295 295 294 295 295 295 294 294 294 294 294 293 292
329 328 327 325 323 322 321 320 318 316 315 315 314 314 313 312 312 312 311 311 311 310 309 309 308 307 307 306 306 305 305 304 303 302 302 300 298 296 294 293 293 293 293 294 295 296 298 299 299 299 300 300 300 300 300 300 300 300 300 300 299 298 298 297 297 297 297 296 295 295 295 295 295 295 294 294 295 294 294 294 294 294 294 293 292
329 327 327 325 323 321 320 319 318 316 315 314 313 313 312 311 311 311 311 311 310 309 309 308 307 307 307 306 305 305 305 304 303 302 301 300 298 298 296 294 293 293 293 293 293 295 296 298 299 299 299 299 299 299 300 300 299 300 300 300 299 298 298 297 297 297 297 296 296 295 295 295 295 294 294 294 294 294 294 294 294 294 294 292 292
328 327 326 324 323 322 320 319 317 315 314 313 313 312 311 310 310 310 310 310 310 309 308 308 307 306 306 306 305 305 305 304 303 302 301 300 299 299 298 295 293 292 292 292 292 293 294 295 297 298 298 298 298 299 299 299 299 299 299 299 299 298 298 297 297 297 297 296 295 295 295 295 294 294 294 294 294 294 293 294 294 294 293 292 291
327 326 325 324 323 322 320 318 317 315 314 313 312 312 311 310 310 310 310 310 309 308 308 307 306 306 306 306 306 305 304 304 303 302 301 300 301 301 299 298 295 293 292 292 292 292 292 293 294 295 296 296 296 297 297 298 298 298 298 299 298 298 298 298 297 296 295 295 295 295 296 295 294 294 293 293 294 294 293 293 294 293 292 291 291
326 325 324 323 323 321 320 317 316 315 314 313 312 311 311 310 309 309 309 309 308 307 307 307 306 306 306 306 305 305 304 304 303 302 301 301 301 301 301 300 298 294 293 292 292 291 291 291 292 292 292 293 293 293 293 294 295 297 298 298 298 298 298 297 296 295 295 295 295 295 295 294 294 294 293 294 294 293 293 293 293 292 291 291 291
325 324 323 323 322 320 319 316 315 314 313 312 312 311 311 310 309 309 308 308 307 306 306 307 306 306 306 305 305 305 304 304 303 302 302 302 302 301 301 301 300 297 294 293 293 292 291 291 291 291 291 291 291 292 292 293 294 296 297 297 297 297 297 296 295 295 295 295 295 295 294 294 294 294 293 294 294 293 292 293 292 291 290 291 291
324 324 323 322 321 319 317 315 314 313 312 312 312 311 311 310 309 308 308 307 307 306 306 307 306 306 306 305 305 305 304 304 304 303 303 302 302 302 302 301 301 300 296 294 295 295 293 292 292 291 291 290 291 291 292 293 294 295 296 297 297 296 296 295 295 295 295 295 295 294 294 294 294 293 293 293 293 292 292 292 291 290 290 290 291
323 323 322 321 320 318 316 315 314 313 312 312 311 311 310 310 308 308 308 307 307 306 306 306 306 305 305 305 305 305 304 304 304 303 303 303 302 302 302 301 301 300 296 295 296 296 295 294 293 292 292 291 291 291 292 293 294 295 295 296 296 295 295 295 295 295 295 295 295 294 294 293 293 293 293 293 292 292 291 291 290 290 290 291 292
322 322 321 320 318 316 316 315 314 313 312 312 311 311 310 309 308 308 307 307 306 306 305 306 305 305 305 304 305 305 304 304 304 303 303 303 302 302 302 301 301 299 296 296 297 297 296 295 294 293 293 292 291 291 291 292 293 294 294 294 295 295 295 295 295 295 295 295 295 294 294 293 293 293 292 292 292 291 290 290 290 289 289 290 292
320 320 320 320 318 316 315 315 314 313 312 312 311 311 310 309 308 308 307 306 306 305 305 305 305 305 304 304 304 305 304 304 303 303 302 302 301 301 301 301 299 297 297 297 298 298 297 296 294 294 294 293 292 291 291 291 292 293 294 294 294 295 295 295 294 294 295 294 295 295 294 293 293 293 292 292 291 290 289 289 289 288 289 290 291
319 319 319 319 317 316 315 314 314 313 312 312 311 311 310 309 308 307 307 306 305 305 305 304 304 304 304 304 303 304 303 303 303 302 302 301 301 301 301 300 298 297 298 299 298 298 298 297 295 294 294 293 292 291 290 290 292 293 294 294 294 294 294 294 294 294 295 294 295 294 294 293 293 293 292 292 291 290 289 288 288 288 288 290 291
319 319 319 318 317 316 314 313 313 313 312 312 311 311 309 308 307 307 307 306 305 304 304 303 303 303 303 303 303 302 302 302 302 302 302 301 300 299 299 299 298 298 299 299 299 299 299 298 297 295 294 294 293 291 290 291 292 293 294 294 294 294 294 294 295 295 295 295 294 294 294 293 293 293 292 292 290 290 289 289 288 288 288 289 290
318 318 318 317 316 315 314 313 313 312 312 311 311 311 309 308 307 307 306 305 304 303 303 303 303 303 303 302 302 302 302 302 303 303 302 300 298 297 297 298 298 299 300 300 300 300 299 299 298 296 295 294 292 290 290 291 293 293 293 293 294 294 294 295 295 295 295 295 294 294 294 293 293 292 292 292 291 291 291 290 289 288 288 289 290
317 317 317 316 315 314 313 313 312 312 312 311 311 310 309 308 307 306 305 304 304 303 303 302 302 302 302 302 302 302 302 303 303 302 301 300 299 298 298 299 299 300 300 300 300 300 300 300 299 297 295 294 292 290 290 292 293 293 293 294 294 294 295 295 295 295 295 295 294 294 294 293 293 292 292 292 291 291 291 291 291 290 289 289 289
316 316 316 315 314 313 313 312 312 312 311 311 310 309 308 307 306 304 304 304 303 303 302 302 302 301 301 301 302 302 302 302 302 302 301 301 300 300 300 300 300 300 300 300 300 300 300 300 299 298 296 295 292 290 290 291 293 293 293 294 294 295 295 295 295 295 295 295 295 294 294 294 293 293 292 292 292 292 292 292 292 292 291 290 289
316 315 316 315 314 313 313 312 312 311 311 311 310 308 307 306 305 304 304 303 302 302 302 302 301 301 301 301 302 302 302 302 302 301 301 301 301 301 301 301 301 301 301 300 301 300 300 300 299 298 297 295 293 292 291 291 292 293 294 294 295 295 295 296 295 295 295 295 295 294 294 294 294 293 292 292 292 293 293 293 293 293 293 292 290
315 315 315 314 313 313 312 311 311 311 310 310 309 307 306 305 304 303 303 303 302 301 301 301 301 301 301 301 301 301 301 301 301 301 301 301 301 301 301 301 301 301 301 301 301 300 300 300 299 298 297 296 295 294 292 291 293 294 294 295 295 296 296 296 296 295 295 295 295 295 294 294 294 294 293 293 293 293 294 294 294 293 293 293 292
314 315 314 314 312 312 312 311 311 311 310 309 308 306 305 305 304 303 303 302 301 301 301 301 301 301 301 301 301 301 301 301 301 300 300 300 300 300 300 301 300 301 301 301 301 301 300 300 299 298 298 297 296 295 292 291 293 294 295 295 296 296 296 296 296 296 295 295 295 295 294 294 294 294 294 293 293 293 294 294 294 294 293 293 292
Wind_Speed
9 11 13 15 16 17 19 20 19 18 18 18 19 18 18 19 19 21 22 23 25 25 24 25 24 22 21 20 18 16 15 14 12 10 9 9 9 10 10 9 9 10 11 11 11 10 10 9 8 8 6 4 4 4 5 5 5 4 3 5 7 9 12 14 13 12 11 11 12 9 7 2 1 4 9 14 15 13 13 14 15 17 17 19 20
8 10 12 15 16 18 19 20 20 20 19 20 21 21 21 21 22 24 24 23 24 24 24 23 23 22 21 19 18 16 14 13 12 12 13 14 13 13 12 12 12 12 12 12 12 11 11 10 10 9 7 6 5 5 4 4 3 3 4 6 9 11 14 15 15 12 9 9 8 8 8 3 2 3 4 12 15 12 12 14 16 19 20 20 20
9 8 11 15 17 19 20 19 20 21 21 22 22 23 23 23 25 26 25 24 23 23 23 22 21 20 19 18 18 16 14 14 15 15 16 17 16 15 15 14 14 14 12 11 11 11 10 10 10 9 8 6 5 4 4 4 5 5 6 7 8 10 12 14 15 13 10 8 4 3 5 3 4 4 7 13 12 10 12 14 17 20 21 21 21
11 9 10 13 17 19 20 19 20 21 21 21 22 23 23 25 26 27 26 24 23 23 22 21 20 18 17 18 17 16 16 17 18 18 18 18 18 17 16 15 14 13 12 10 10 10 9 9 9 7 7 6 4 4 5 6 7 7 8 9 8 10 11 12 14 14 13 9 3 2 1 2 2 5 14 15 8 9 12 14 17 21 23 22 22
12 11 10 11 16 20 21 20 21 21 21 21 22 23 23 25 26 27 26 24 23 22 21 21 20 19 19 19 18 18 20 20 21 20 19 19 18 17 16 14 13 12 11 10 10 10 9 9 7 6 6 6 5 6 7 8 8 9 11 11 11 11 10 11 12 13 15 13 8 3 1 2 1 5 11 8 7 10 10 14 19 22 23 21 22
11 11 10 10 15 21 21 21 22 21 21 21 22 23 22 23 24 24 24 23 22 21 21 22 22 21 22 22 22 21 20 19 22 22 20 20 18 17 15 13 12 11 11 11 10 10 9 8 8 7 7 8 7 8 9 9 11 12 12 12 13 11 9 11 12 12 14 16 15 12 8 7 4 6 5 3 9 9 5 13 19 22 23 19 22
10 9 9 10 16 20 20 22 22 20 19 20 21 21 21 21 21 22 22 22 21 21 22 22 22 23 23 23 24 23 19 18 21 22 21 20 18 17 15 12 11 11 11 10 10 9 9 9 8 8 9 10 9 9 11 12 14 15 14 14 15 13 11 14 16 13 13 15 16 16 15 15 13 11 5 3 6 4 6 13 16 20 21 17 22
10 9 9 10 14 19 21 21 21 19 19 20 20 20 19 19 19 20 18 16 16 18 19 21 22 23 23 24 24 23 22 21 22 22 21 20 18 16 14 13 11 10 10 10 9 9 9 8 8 9 11 11 10 11 13 14 16 17 17 17 17 17 16 17 20 18 17 17 15 14 15 15 17 17 14 8 3 4 8 11 16 23 19 15 20
10 10 11 11 13 17 20 20 19 19 19 19 20 19 18 17 18 18 13 11 13 15 16 18 22 24 24 26 24 23 24 24 23 22 21 19 18 16 14 13 12 11 10 10 10 9 9 9 9 11 12 13 13 14 15 16 17 18 19 19 19 20 20 19 22 22 21 19 17 16 16 16 17 19 21 17 8 4 6 7 19 27 20 16 20
10 11 11 12 14 16 17 18 18 19 19 19 19 19 18 16 18 18 13 13 17 17 17 17 19 22 24 27 26 24 25 25 23 22 21 19 17 16 14 13 12 12 11 11 11 11 10 11 11 13 14 14 15 16 17 18 19 20 20 20 20 21 22 22 23 23 23 22 20 20 20 19 16 16 20 19 12 7 6 7 15 20 18 20 22
9 9 9 12 15 16 17 18 18 20 19 19 18 18 18 17 17 18 16 17 18 18 18 17 17 21 25 27 27 26 27 26 24 23 21 19 18 16 15 14 13 13 12 12 12 12 12 13 14 15 16 16 17 18 19 20 20 20 20 19 20 21 22 23 24 23 23 23 23 23 23 21 17 13 14 16 11 7 6 6 12 17 16 18 22
9 8 7 9 12 15 18 19 19 21 20 19 19 19 19 19 18 17 16 17 17 16 17 17 18 21 25 27 27 27 27 27 25 24 21 20 18 17 16 15 14 14 13 13 13 13 13 15 16 16 17 18 19 20 20 20 20 19 19 20 21 22 22 22 24 23 23 23 23 23 22 21 20 16 14 15 13 9 8 5 11 17 13 13 20
9 8 8 8 9 12 18 20 20 20 20 20 20 19 20 19 18 17 16 17 17 16 16 18 20 22 25 27 26 26 26 26 25 23 21 19 18 18 17 16 15 15 14 15 15 14 15 16 17 18 19 19 20 20 20 19 19 19 21 22 23 23 22 22 23 23 22 22 22 21 21 21 20 18 16 16 15 14 12 9 11 14 9 12 19
8 7 9 9 9 12 17 20 20 19 20 20 21 21 21 20 19 19 18 18 18 18 19 20 21 23 25 26 25 25 25 24 23 21 20 19 18 17 16 15 15 16 16 16 16 16 17 18 18 19 20 20 20 20 19 19 19 21 22 23 24 23 22 22 22 21 21 21 21 22 23 22 20 18 17 17 17 17 16 13 13 14 9 10 15
8 7 9 9 11 14 16 18 19 19 21 21 22 22 23 23 22 22 20 19 19 20 21 22 22 23 24 24 24 24 24 23 22 20 19 18 17 16 15 15 16 17 17 17 17 17 19 19 19 20 20 20 20 19 19 19 20 22 22 23 23 21 21 22 22 22 22 23 23 23 23 22 20 19 18 17 17 16 17 16 14 11 6 6 9
9 8 9 10 13 16 16 17 19 20 22 22 23 24 25 25 24 22 21 20 19 20 22 22 23 23 23 23 24 24 24 23 22 20 18 17 16 16 17 17 17 17 17 17 17 18 19 19 20 21 21 20 20 19 20 20 20 21 22 22 23 22 22 24 24 25 25 24 24 23 22 21 18 17 17 16 16 14 14 16 16 12 7 6 7
10 8 9 10 12 15 17 18 20 21 22 23 23 24 27 27 25 23 22 21 21 21 22 22 23 23 23 23 23 23 23 23 22 21 19 18 18 18 18 18 17 17 17 18 18 18 19 20 21 22 21 21 21 20 20 19 19 21 21 22 23 23 24 26 25 26 26 25 24 23 21 20 18 17 17 15 15 14 14 14 15 14 10 6 6
9 9 9 10 13 15 17 19 20 21 23 24 24 24 26 27 25 24 24 23 22 22 23 23 23 23 22 22 22 22 22 22 21 21 20 20 20 19 18 18 17 17 17 18 18 19 19 20 21 22 21 21 21 20 19 19 19 21 22 22 23 23 26 27 25 25 25 25 25 24 22 22 21 21 20 18 16 15 15 14 14 14 11 8 6
9 9 9 9 13 16 18 19 20 22 24 25 25 24 26 26 26 25 24 24 23 23 23 22 22 22 22 21 22 22 22 22 22 22 21 21 20 19 19 19 18 18 18 18 18 19 20 20 21 22 21 21 21 20 19 19 20 21 22 23 22 23 26 27 26 25 25 25 25 25 24 24 24 24 23 22 20 18 16 16 14 13 12 10 8
9 10 10 9 13 18 19 20 21 22 24 26 26 25 25 25 26 26 24 24 23 23 23 22 22 22 22 22 22 22 22 22 22 22 21 21 20 20 19 20 19 18 17 17 17 18 19 20 20 21 21 21 21 21 19 19 20 21 22 22 22 23 26 27 26 25 24 25 26 26 26 25 24 24 24 23 21 19 17 16 14 13 12 10 11
10 9 10 10 14 19 20 21 23 22 24 26 27 26 25 25 25 25 24 23 23 22 22 22 21 21 21 22 21 21 21 22 22 21 21 21 21 20 20 20 19 17 15 15 16 17 18 19 20 21 21 21 21 21 19 19 20 22 21 21 21 22 24 25 25 24 24 25 26 27 26 24 23 22 22 21 20 18 17 15 13 12 12 11 12
12 9 9 10 14 19 20 22 23 22 23 26 27 26 26 25 24 24 23 23 22 22 21 21 21 21 20 20 20 20 21 22 22 21 21 22 21 20 20 18 17 15 13 13 15 17 17 19 20 20 20 21 21 20 19 19 20 22 21 20 20 21 23 24 24 23 23 23 25 25 24 23 22 21 20 19 19 18 17 16 15 13 13 13 13
13 10 9 10 16 20 20 22 23 22 23 25 26 26 25 25 24 23 23 22 21 21 21 21 21 20 19 19 18 19 21 21 21 22 22 22 21 20 19 16 15 14 12 12 14 17 18 19 20 20 20 21 21 20 19 19 20 21 21 20 20 20 22 23 24 22 20 20 21 22 22 21 21 21 20 19 18 17 17 16 15 14 14 15 16
12 11 8 10 16 18 19 20 21 22 23 24 25 25 25 25 24 24 23 22 21 21 21 21 20 19 18 18 18 20 21 22 22 23 23 23 22 20 17 15 14 12 12 13 16 18 19 19 20 21 21 21 21 20 19 19 20 19 19 19 19 21 22 23 23 21 19 17 18 19 20 19 19 20 20 19 18 17 16 15 15 15 15 17 19
13 13 10 11 13 15 17 19 20 21 23 23 24 25 25 25 24 23 23 22 21 21 22 21 21 19 19 19 20 22 23 23 24 24 24 23 22 19 17 14 13 13 13 15 17 19 20 20 20 21 21 21 20 19 19 20 19 18 18 18 18 19 21 21 20 19 17 15 15 17 18 18 18 19 19 19 18 17 17 16 16 17 18 19 21
14 14 12 12 12 13 17 19 19 21 22 23 24 25 26 25 24 23 23 22 22 22 22 22 21 22 22 22 22 22 24 24 24 24 24 23 21 18 16 14 13 13 15 16 18 20 20 21 21 20 20 20 19 18 18 19 18 17 17 17 17 18 18 18 17 17 17 15 14 15 16 17 17 18 19 19 19 19 18 19 19 20 21 21 23
13 14 12 12 11 12 16 18 19 21 23 23 24 25 26 26 24 23 23 23 22 22 22 22 22 24 24 22 22 23 24 24 24 24 24 22 20 17 16 15 14 15 16 17 19 21 21 21 21 20 20 20 19 18 17 17 17 15 15 15 15 15 15 15 15 15 16 15 13 13 15 16 17 17 19 20 20 20 21 21 21 22 23 23 24
12 13 13 13 12 12 15 18 20 21 23 23 24 26 27 27 26 26 24 24 23 23 22 21 22 23 23 23 24 24 24 24 24 24 23 21 19 17 16 16 16 16 17 18 20 22 22 21 21 20 20 20 19 18 16 16 15 14 13 13 12 13 13 13 13 13 14 14 13 13 14 15 15 16 18 19 21 21 22 23 23 24 23 23 23
14 14 14 15 14 13 15 19 20 22 23 23 24 25 27 28 28 27 26 25 24 23 22 22 22 24 24 24 25 25 24 24 25 24 24 22 20 18 18 18 17 17 18 19 20 22 22 22 21 20 20 19 18 17 16 14 13 12 12 11 10 10 11 11 12 12 13 13 12 12 12 13 14 14 16 18 19 20 22 23 24 23 23 22 22
16 16 15 15 14 14 17 19 20 22 24 24 24 25 27 28 29 28 27 25 24 24 23 23 24 25 25 26 26 25 25 25 26 25 24 23 21 19 19 18 18 18 18 18 20 21 22 21 21 20 19 18 17 16 15 14 12 11 10 10 9 9 9 10 11 12 12 12 11 10 11 13 13 14 15 17 18 18 20 21 21 21 22 21 22
15 15 14 13 13 14 16 19 21 23 25 25 25 26 28 29 29 29 28 26 25 25 25 25 25 26 26 26 26 26 26 26 26 26 25 23 21 20 20 19 18 18 18 19 19 20 21 21 20 20 18 18 17 16 15 13 12 11 9 9 9 8 8 10 11 13 13 11 10 10 12 13 13 14 16 17 16 17 19 19 18 19 20 21 23
16 15 15 14 14 14 16 20 22 25 26 26 26 27 27 29 29 29 28 27 26 26 27 27 27 27 27 27 27 28 27 27 27 26 25 23 22 21 20 19 19 19 18 19 19 20 20 20 19 19 18 17 16 15 13 12 11 11 9 8 8 9 9 9 10 12 12 10 9 10 11 12 14 15 16 17 16 16 19 18 17 19 20 22 24
17 16 16 16 15 16 19 23 25 26 27 28 29 30 30 30 31 30 29 28 27 28 28 28 28 29 28 28 28 28 28 28 27 27 26 24 23 21 21 20 20 19 18 19 19 19 20 19 18 18 17 16 15 13 12 11 11 10 7 6 7 9 10 8 8 9 10 9 8 10 12 13 14 15 15 16 16 17 20 19 18 20 22 25 26
15 15 15 14 14 18 22 25 27 29 31 32 33 33 33 33 33 33 32 31 29 29 29 28 29 29 28 28 28 28 28 28 28 28 27 25 23 22 21 20 19 19 19 19 19 18 18 18 17 17 16 15 14 12 11 10 9 8 6 6 7 9 10 7 5 5 7 8 8 11 13 14 14 14 14 16 17 19 22 20 19 21 24 27 26
14 14 13 13 17 20 22 24 26 28 30 31 30 29 29 31 32 33 32 32 30 29 28 29 29 29 29 28 28 27 27 27 28 29 28 26 24 23 21 20 19 18 18 18 18 18 18 17 16 16 16 15 13 11 10 8 7 6 5 6 8 9 9 7 4 1 4 6 8 11 13 13 14 13 14 15 17 20 22 21 20 22 25 28 26
16 16 16 18 22 25 25 26 26 27 28 28 27 28 29 29 30 30 31 31 31 29 29 30 29 29 29 29 28 28 27 28 29 29 28 27 25 24 22 20 19 18 18 18 17 17 17 16 16 15 15 14 12 9 9 8 6 6 6 7 8 8 8 6 4 1 2 4 7 10 11 11 12 13 14 15 16 18 21 21 21 22 26 28 27
17 19 21 24 27 28 28 28 28 29 30 29 28 29 30 29 28 29 31 32 30 29 30 31 30 30 30 30 30 30 29 29 30 29 29 28 26 24 23 21 19 18 18 18 17 17 16 15 14 14 13 13 11 8 7 7 7 7 7 8 8 8 7 5 3 1 1 3 6 9 9 9 11 13 15 16 15 16 20 21 20 23 27 28 28
18 20 21 24 26 26 28 30 30 30 31 31 31 31 31 30 29 30 31 31 29 30 32 32 32 32 31 31 31 31 31 31 30 30 30 29 27 25 23 21 19 18 17 17 17 17 16 14 13 13 12 12 11 8 6 6 8 9 9 9 9 8 7 5 4 3 0 3 5 7 7 8 10 13 15 15 15 16 19 20 20 23 26 28 28
20 23 24 25 26 27 28 30 31 30 30 30 32 32 31 30 29 30 30 29 29 31 33 34 33 32 31 31 31 31 31 31 30 29 29 28 27 25 23 20 19 17 17 17 18 18 16 14 13 12 11 10 10 9 7 7 8 10 11 10 10 8 7 6 5 4 1 3 4 5 6 8 9 12 13 12 14 16 18 18 20 22 24 26 27
20 24 26 28 29 28 28 29 30 30 31 32 33 32 30 29 29 29 29 29 30 32 33 33 33 31 30 31 31 31 31 31 30 29 27 27 26 25 23 21 20 18 17 18 18 17 16 15 13 12 10 9 9 8 8 8 9 10 11 10 9 8 8 8 6 3 2 3 4 5 6 8 9 11 11 12 14 16 16 17 19 21 22 23 24
24 26 27 27 28 29 30 30 31 32 32 33 33 30 28 28 27 28 28 29 31 32 32 32 32 30 29 30 30 30 31 30 30 29 27 26 25 25 24 23 21 19 20 19 18 16 16 14 13 12 10 9 8 7 8 8 9 10 10 10 10 9 9 8 4 2 3 4 4 5 6 8 9 10 10 12 14 15 15 16 18 19 19 20 21
24 28 29 28 25 26 29 30 32 34 35 35 34 30 27 27 27 27 28 29 31 32 32 33 32 30 29 30 30 30 30 30 30 29 28 27 25 24 24 23 21 21 22 21 18 17 15 14 13 11 10 9 7 6 6 7 8 9 10 10 10 10 8 6 3 2 3 4 5 5 6 8 9 9 10 12 15 16 16 17 18 18 18 19 20
22 25 28 28 24 24 26 27 30 34 34 35 34 30 27 27 27 26 27 29 31 32 32 32 32 31 31 30 31 31 30 30 30 29 29 28 25 25 25 23 23 24 24 22 19 17 16 14 13 11 9 8 7 5 5 6 7 8 10 10 10 8 6 4 3 2 3 4 5 4 6 8 8 8 11 13 15 16 16 17 18 19 19 20 21
21 24 27 28 25 24 26 27 30 32 33 34 34 31 28 27 27 27 29 30 31 32 33 33 32 33 32 31 31 31 30 30 31 30 29 27 26 26 26 25 25 25 24 22 20 19 17 16 14 12 10 8 6 5 5 6 7 9 10 9 8 6 4 3 2 2 2 4 4 4 5 6 7 8 10 13 15 16 18 19 19 20 20 21 21
22 25 28 28 26 26 27 27 30 32 33 33 34 33 30 28 28 30 32 33 33 33 33 33 33 33 32 31 31 31 31 31 32 32 30 28 27 27 28 28 27 26 24 22 21 20 18 16 15 13 11 9 7 6 6 7 9 10 9 8 6 5 3 2 1 1 2 3 3 3 4 6 7 8 10 13 14 17 20 21 22 22 21 21 22
21 23 25 25 25 26 27 27 29 31 32 32 33 34 33 31 31 33 35 34 34 34 33 33 33 33 32 32 32 32 32 32 32 32 30 28 29 30 30 30 28 26 24 23 22 21 19 17 16 15 12 10 8 7 7 9 10 11 9 7 6 4 3 2 1 0 1 1 2 2 3 5 7 8 10 12 14 16 20 23 24 25 24 22 22
22 24 26 26 24 24 25 26 27 29 31 31 31 32 31 32 33 34 35 35 35 35 33 32 32 32 32 32 33 33 33 33 33 33 31 29 30 31 31 30 29 27 26 24 23 22 21 20 18 17 14 11 9 8 9 10 12 12 10 8 6 4 3 3 2 1 1 1 1 1 3 6 8 9 10 12 13 15 18 22 25 26 27 25 24
21 24 26 25 23 23 24 25 26 28 30 31 30 29 29 31 33 35 36 36 36 35 34 32 32 32 32 32 34 34 34 34 34 34 32 31 32 32 31 30 29 28 27 26 25 23 22 21 20 18 16 13 11 10 10 11 12 12 10 9 7 5 4 4 3 1 1 1 1 1 3 5 8 9 10 11 13 15 17 19 22 25 27 27 27
21 24 25 25 24 24 24 24 25 27 29 30 29 28 30 33 35 36 37 37 35 34 33 32 32 32 32 32 33 34 34 34 34 33 32 32 32 32 31 29 26 25 25 24 24 23 22 22 21 19 17 16 13 11 10 10 12 13 11 9 7 5 4 3 3 2 1 1 2 2 4 6 8 10 11 11 13 15 17 18 20 22 25 27 28
21 23 23 23 24 25 25 25 25 27 30 29 28 28 31 34 36 37 37 36 34 32 30 30 31 32 32 32 33 33 34 34 34 33 32 31 31 31 31 28 25 24 24 22 22 21 20 20 20 19 16 13 9 7 8 11 13 13 12 10 8 5 4 4 3 3 3 2 2 3 5 6 7 9 11 12 12 14 16 18 19 20 22 24 26
22 22 20 21 23 24 25 25 25 27 29 29 27 28 31 33 35 36 36 35 33 31 28 27 28 30 31 32 32 33 34 34 33 33 32 31 30 29 30 29 27 25 24 23 23 21 19 18 18 18 16 13 8 6 9 12 14 14 13 11 8 6 5 5 4 4 4 4 4 4 5 6 7 9 10 12 12 13 14 17 18 19 20 21 23
Wind_Direction
149 151 157 162 166 166 168 168 166 165 169 173 175 178 182 183 181 179 176 175 175 173 169 168 167 165 162 163 163 160 163 163 157 155 151 143 143 146 149 146 143 140 138 139 139 137 131 125 122 117 116 121 109 88 66 53 48 44 51 46 31 31 28 19 10 358 351 345 337 339 352 353 146 40 45 45 35 31 31 30 28 24 21 19 17
146 150 156 162 166 166 167 168 168 168 170 176 177 180 184 184 183 181 177 177 178 178 176 174 173 171 167 164 161 157 157 155 145 139 137 134 134 137 138 137 137 134 132 131 127 125 124 121 118 115 116 112 99 82 65 59 58 49 46 45 42 41 39 28 15 12 9 353 332 329 341 339 271 304 23 27 24 23 19 21 22 19 16 12 8
157 156 159 165 167 166 167 170 173 174 174 177 178 180 182 183 184 183 181 182 182 183 183 180 177 176 175 169 163 155 146 143 138 136 138 135 131 131 130 130 132 128 127 127 122 120 121 121 118 116 113 101 92 85 73 64 52 46 41 45 51 51 51 40 29 31 20 353 319 326 353 345 314 328 346 354 13 21 11 17 19 16 12 6 3
165 161 162 169 169 169 171 173 176 177 176 176 176 178 181 184 185 185 185 185 185 186 186 183 177 175 174 168 163 151 137 136 135 134 137 134 128 127 127 127 128 125 125 125 124 123 120 119 117 113 104 93 91 87 75 63 51 46 42 42 48 53 57 51 42 43 37 25 6 293 309 358 345 353 338 331 1 21 10 14 13 11 8 1 3
171 167 167 171 170 172 174 175 178 179 179 178 178 180 183 186 188 188 187 186 186 186 186 182 176 168 161 153 148 139 132 132 130 127 130 130 127 125 124 126 128 126 125 124 124 123 118 115 110 104 99 93 89 81 74 67 57 51 46 44 50 57 64 60 54 50 50 54 55 42 327 360 316 332 336 319 335 351 4 11 3 5 7 2 3
179 171 169 167 167 171 174 177 180 181 181 181 181 183 185 190 191 190 188 186 185 186 186 183 175 167 158 149 142 134 128 128 129 128 128 128 126 124 123 124 128 126 124 123 121 119 115 111 107 103 99 93 89 83 78 71 63 59 53 52 57 60 63 62 59 58 60 62 65 72 68 50 19 341 344 298 321 328 350 356 350 358 4 2 2
180 170 167 168 169 170 173 178 180 180 180 180 181 183 187 192 193 191 191 188 185 184 183 178 172 168 161 155 148 140 131 126 131 133 131 129 125 124 123 122 124 123 120 117 114 112 109 107 102 98 95 93 92 86 79 74 70 68 64 63 64 61 61 63 59 58 62 61 65 73 67 57 49 37 34 320 320 318 330 339 343 354 1 1 359
177 166 170 178 177 174 173 177 179 177 174 175 179 182 185 189 192 194 193 188 185 183 179 175 174 170 162 156 149 143 138 133 136 136 133 132 127 124 124 121 119 116 114 111 107 106 103 99 94 92 95 95 93 86 82 80 78 76 71 69 69 66 67 70 66 62 60 57 58 62 58 53 50 46 40 24 350 304 320 333 340 344 353 6 358
175 169 173 178 179 177 175 174 174 173 169 170 176 179 181 184 187 187 178 174 184 186 180 178 178 173 165 156 147 142 142 140 139 138 135 135 130 126 124 120 116 111 108 105 102 100 97 97 97 97 99 96 92 87 86 85 82 78 74 73 75 75 76 78 74 70 65 60 56 53 47 43 41 38 33 30 30 348 332 333 338 340 345 355 356
174 171 173 174 174 175 172 168 168 168 168 171 174 177 180 180 182 182 173 177 190 191 184 180 177 173 165 157 148 142 143 143 141 138 137 138 132 128 123 118 114 108 104 100 97 97 98 102 103 102 101 97 92 89 89 87 82 80 80 81 83 83 82 82 79 76 72 66 61 56 50 42 36 31 26 26 28 15 350 328 335 340 332 331 347
170 168 164 164 165 165 164 162 162 164 169 173 171 174 179 178 179 185 185 184 187 187 183 182 182 176 166 159 153 150 149 147 144 139 138 138 133 128 122 117 112 106 102 98 96 99 102 104 104 102 99 95 92 90 89 87 86 86 86 87 87 87 87 85 81 78 74 70 67 64 62 58 54 46 34 30 32 16 347 324 327 330 316 312 336
164 160 151 151 156 159 159 158 159 163 168 168 167 172 174 175 181 186 185 181 182 182 179 182 185 177 166 161 158 156 156 154 150 145 141 140 135 129 124 119 113 107 103 99 100 104 106 105 104 101 97 94 94 92 91 91 91 90 87 88 89 89 88 84 79 76 72 71 70 68 67 65 62 57 50 44 40 23 0 334 325 332 318 306 333
164 154 151 153 154 157 157 157 160 163 164 163 165 170 166 169 181 185 183 182 180 179 178 180 181 173 165 163 160 157 158 157 153 148 144 142 138 134 129 123 115 108 103 102 104 108 108 106 103 100 97 97 97 95 95 95 94 90 88 89 89 87 83 79 77 74 71 71 70 68 66 65 63 58 54 48 40 30 17 354 332 335 314 301 331
170 154 154 157 156 157 159 161 162 160 160 159 162 167 162 161 172 176 177 178 176 173 173 173 172 169 166 164 161 159 159 158 154 149 146 144 140 135 129 122 114 108 105 106 109 110 108 106 104 101 100 100 100 99 99 99 95 92 90 90 87 84 80 76 74 73 72 72 71 70 68 65 62 57 54 47 38 32 23 7 344 336 313 302 332
170 161 156 153 156 160 160 161 160 155 154 153 154 159 157 156 162 165 166 169 170 168 166 165 164 165 165 164 163 163 161 156 152 149 147 143 138 131 125 120 115 111 112 113 114 114 111 110 107 103 102 103 102 103 103 100 97 94 92 90 86 82 77 74 74 74 74 74 72 70 67 62 58 53 50 46 40 36 28 21 10 356 333 322 337
169 163 154 151 158 161 159 156 154 151 149 148 149 152 151 151 154 156 158 162 166 165 163 162 162 162 163 163 162 162 159 153 148 146 144 141 135 130 125 122 119 117 119 120 120 118 116 114 110 106 105 105 104 105 104 101 98 96 94 90 85 80 77 77 77 75 74 72 70 67 63 58 52 49 49 46 42 42 38 32 28 23 3 338 338
167 162 155 157 161 160 156 152 150 150 147 146 148 150 150 150 151 150 150 154 159 161 161 160 159 159 159 159 159 158 155 151 147 145 142 138 134 131 128 125 123 123 125 125 123 121 119 116 111 108 107 106 105 105 104 102 99 96 94 90 85 81 80 79 76 74 72 70 67 64 62 58 53 51 51 50 47 46 48 45 39 33 21 358 341
160 159 157 160 160 156 153 151 150 149 146 145 148 148 147 149 152 151 148 150 153 155 156 157 158 156 154 154 154 153 152 150 148 146 143 140 137 134 133 130 129 129 129 128 126 122 120 116 112 110 108 107 106 105 105 103 100 98 94 90 86 84 82 79 74 72 72 69 66 63 62 61 58 55 53 52 52 52 52 52 48 41 32 23 360
159 162 162 160 159 155 150 149 148 147 145 146 146 144 143 146 151 152 150 150 151 152 153 154 155 154 152 152 152 150 150 149 148 146 144 143 140 138 137 135 134 134 132 130 127 122 119 115 113 112 111 110 109 108 107 104 101 99 95 91 86 84 83 78 73 72 71 68 65 63 63 62 59 56 55 54 53 55 55 51 49 44 35 24 360
164 162 162 161 156 153 151 149 147 147 146 145 144 143 142 145 149 150 150 149 150 151 151 151 152 152 150 150 150 149 150 149 148 149 148 145 143 142 140 139 138 135 133 130 126 121 119 117 117 117 115 115 113 111 108 106 103 100 96 91 87 85 83 78 74 72 70 67 66 64 63 62 59 56 55 55 53 53 52 48 42 31 22 10 348
164 157 158 159 152 149 150 148 146 146 144 143 144 144 145 147 149 150 150 149 149 150 151 151 151 152 151 150 150 150 151 151 150 152 150 146 144 144 142 141 139 135 132 129 124 123 123 122 122 121 121 120 117 113 111 109 106 102 98 92 87 86 84 78 73 70 68 67 66 66 65 61 59 57 54 53 51 48 46 41 34 22 10 5 348
168 161 154 155 151 148 149 147 146 146 143 142 144 146 148 150 150 152 152 152 153 154 155 155 153 153 153 151 152 153 155 155 154 153 151 147 145 145 144 143 138 133 131 128 127 129 130 128 127 125 124 123 119 117 115 112 109 106 100 92 86 87 85 77 71 68 66 66 66 66 64 60 56 55 52 49 44 41 39 33 28 22 8 4 355
167 162 154 155 152 148 148 147 147 147 145 144 146 149 151 152 153 155 155 154 156 157 157 157 155 155 154 154 156 158 159 159 156 153 150 147 146 145 146 144 137 132 132 131 136 139 137 134 131 128 127 126 123 121 118 115 112 108 101 92 85 84 82 76 69 66 64 65 66 64 61 56 53 51 47 43 39 34 32 27 21 16 3 356 354
158 157 154 154 149 146 148 150 150 149 148 148 149 150 152 154 156 157 156 156 158 158 159 158 157 155 156 158 159 159 159 158 154 150 148 146 145 144 145 143 136 133 135 138 144 145 142 138 134 131 130 129 127 124 120 117 113 107 99 93 87 82 79 74 68 65 64 64 65 63 59 53 48 46 41 37 34 29 24 20 12 5 357 350 348
153 153 155 156 151 150 153 155 154 152 151 152 151 153 154 156 158 159 158 159 160 161 161 160 159 157 158 157 155 154 154 152 150 148 147 146 145 144 143 140 136 135 136 141 146 147 144 140 136 134 133 131 129 126 122 119 113 105 97 92 88 82 77 74 70 66 65 66 65 61 56 50 43 39 34 28 24 20 14 9 3 357 352 347 344
156 155 157 159 156 154 155 157 157 155 153 153 153 154 156 158 161 163 162 162 164 164 163 161 160 158 156 155 153 152 152 150 150 149 148 147 145 144 142 139 139 139 137 141 146 147 146 142 138 136 135 133 131 127 124 120 114 107 98 92 88 83 78 76 73 67 64 63 64 61 53 45 37 30 25 20 14 11 6 1 357 352 348 344 342
157 155 159 162 159 156 156 157 159 157 155 156 156 156 157 158 161 163 164 164 165 166 164 162 161 157 156 156 155 155 154 152 152 151 148 147 145 144 142 139 142 141 138 140 144 146 145 142 138 137 136 134 132 128 124 121 116 110 102 96 91 87 84 80 74 69 66 62 63 63 52 41 33 24 18 13 8 3 360 357 354 349 346 343 341
155 157 162 165 162 159 158 159 161 158 156 157 158 159 161 161 162 164 165 165 166 166 164 162 162 160 159 160 159 157 156 155 155 153 150 147 145 144 142 140 142 140 137 139 143 145 145 142 140 138 136 136 134 128 124 121 118 113 107 103 99 94 90 85 78 71 66 63 63 61 50 36 27 20 14 9 5 0 357 356 356 353 351 347 344
160 163 167 168 166 164 162 162 162 158 156 158 159 161 162 162 163 165 165 166 167 167 164 162 163 162 161 161 160 159 158 158 157 154 151 148 145 143 141 141 140 137 135 137 141 145 145 143 141 139 138 139 136 130 126 124 121 117 113 114 113 105 96 89 82 74 67 61 60 56 45 32 21 14 11 6 2 359 357 357 358 358 357 354 349
167 169 171 171 169 164 162 162 162 160 160 160 161 163 163 162 162 164 165 167 167 166 164 163 162 162 162 162 162 162 160 159 159 156 152 149 146 145 143 140 137 133 134 136 140 144 146 144 142 140 140 140 137 133 131 128 125 124 124 128 131 122 108 96 83 75 66 58 57 52 38 27 16 8 5 2 0 1 1 1 3 5 3 360 354
171 172 171 170 168 163 162 164 165 165 164 163 164 165 163 162 163 164 165 166 166 164 164 164 163 162 163 163 163 163 161 161 160 158 154 151 149 146 143 139 135 132 133 138 142 145 146 145 144 143 141 139 138 138 138 135 133 133 135 138 144 143 126 106 86 74 65 57 52 43 31 23 13 6 2 359 0 5 4 4 8 10 8 4 357
173 174 171 170 170 169 168 167 167 168 167 165 165 164 163 164 164 165 164 164 165 164 163 164 164 163 164 164 164 163 162 162 162 160 157 154 150 146 143 138 134 133 135 140 144 145 145 146 146 143 141 140 139 141 145 146 144 143 140 136 146 158 146 117 91 73 63 53 41 29 25 19 11 7 1 357 360 3 3 4 7 7 7 6 2
175 178 175 173 174 173 171 170 170 170 169 169 169 169 170 169 167 165 164 165 166 166 165 166 165 164 165 166 166 165 164 164 164 162 159 155 151 146 141 137 135 135 138 140 142 143 144 145 146 144 141 140 141 145 152 155 155 154 152 144 149 163 158 130 98 74 54 40 26 19 19 16 12 8 2 1 3 2 1 2 2 2 3 3 2
177 180 177 172 171 173 175 176 175 174 173 174 176 176 175 173 169 167 167 168 169 169 168 167 165 165 167 167 167 166 165 165 165 163 160 156 152 146 140 138 137 138 139 139 140 142 142 143 146 144 142 142 143 149 158 161 159 158 159 155 155 163 164 151 122 76 42 23 12 10 8 6 8 9 7 10 11 5 2 0 359 360 1 0 1
180 181 178 173 169 171 177 179 177 175 174 174 176 176 173 169 168 167 167 168 171 170 168 166 166 168 168 166 166 166 166 166 165 164 162 159 154 148 142 139 137 138 138 138 138 141 142 144 146 146 145 143 144 150 160 164 163 160 159 157 158 165 171 173 168 94 18 3 360 2 359 358 4 11 14 14 11 6 3 360 358 358 357 357 0
183 180 178 175 173 173 177 177 176 174 173 174 174 172 169 166 166 166 165 169 172 170 167 168 169 169 169 169 169 169 168 168 168 167 166 162 158 152 146 141 138 136 136 135 135 137 139 142 148 153 152 147 145 156 168 175 178 174 169 164 162 168 176 183 188 214 347 345 350 354 354 357 6 14 17 13 8 4 1 359 359 357 354 354 358
181 181 180 178 177 176 176 175 174 173 174 175 174 170 166 164 165 165 166 171 173 169 168 170 171 170 171 173 174 172 170 171 172 172 170 167 162 157 152 148 144 139 136 135 132 131 133 137 144 151 153 147 145 158 175 184 189 186 178 171 165 165 166 168 167 145 360 344 352 356 360 5 10 17 17 11 5 2 359 360 1 357 353 354 356
174 175 177 177 176 175 173 173 173 174 177 176 172 168 165 164 167 168 169 172 173 171 170 172 172 173 176 177 178 176 173 172 174 176 174 170 166 162 160 158 153 147 140 135 131 127 127 130 134 138 141 138 136 143 161 176 182 182 180 173 166 161 156 151 151 155 110 354 5 12 16 16 14 17 15 9 6 1 358 1 3 357 354 355 356
175 173 173 175 175 173 172 172 173 175 177 174 170 168 167 168 170 171 172 174 174 173 174 174 175 177 179 180 180 180 178 176 176 177 177 174 171 168 166 165 162 157 149 140 133 128 126 126 127 128 130 129 127 129 140 155 164 171 176 174 169 167 160 154 156 161 86 21 32 36 30 25 19 17 14 8 6 2 359 2 3 359 356 355 354
174 176 176 174 173 171 170 171 173 174 175 173 170 169 171 172 173 174 175 177 177 176 176 177 177 178 180 182 182 182 182 180 178 178 178 178 175 172 170 170 168 164 158 148 140 133 129 127 126 124 122 123 123 125 133 145 154 160 168 172 175 176 164 154 151 139 57 44 47 40 34 30 23 18 14 9 6 2 360 1 3 2 360 355 352
173 176 176 173 173 173 172 173 173 172 173 172 171 172 175 175 174 177 179 179 178 177 177 177 177 178 183 186 184 184 186 185 183 181 179 178 177 176 174 174 173 169 163 157 150 144 138 132 129 125 120 119 122 126 134 145 152 155 160 166 171 169 157 147 142 99 51 42 35 34 35 32 24 19 15 9 5 2 359 0 3 4 0 355 354
174 174 175 173 172 174 173 173 174 173 174 174 174 175 176 175 177 181 181 178 177 177 177 177 177 179 185 188 187 188 189 188 186 184 181 179 179 178 177 177 176 172 166 162 160 157 151 144 138 132 128 125 127 133 141 150 155 156 156 157 157 155 150 145 137 101 59 37 29 34 36 30 24 20 16 10 5 2 1 1 2 2 0 359 0
171 173 175 173 170 172 173 173 174 175 175 175 175 175 176 177 181 182 178 176 177 177 178 179 178 180 186 189 190 190 191 189 187 185 183 182 180 180 180 180 177 171 167 167 168 167 164 160 153 148 146 140 138 148 157 158 159 156 153 152 151 150 148 143 128 100 54 35 33 34 32 28 23 18 15 11 6 5 5 5 4 3 3 3 4
170 173 176 173 170 170 171 173 175 176 177 178 177 176 177 180 182 180 176 176 177 178 179 179 179 181 185 190 191 191 191 189 186 184 183 182 182 183 184 182 177 173 172 173 174 175 175 173 169 167 167 162 159 167 172 165 159 155 152 151 152 151 149 141 117 71 37 35 34 30 28 24 19 16 13 10 11 15 16 14 12 9 6 5 6
170 174 176 175 172 170 169 172 177 179 179 180 180 179 179 181 180 178 178 178 177 177 177 178 179 181 185 189 190 189 189 187 184 183 183 182 183 184 183 182 180 179 180 180 181 184 184 181 180 181 179 177 177 178 174 167 161 160 161 162 164 163 156 148 130 53 24 27 29 28 28 19 11 10 12 13 18 24 24 22 20 17 11 8 8
169 172 173 173 172 170 169 171 176 180 180 181 183 184 183 181 180 179 179 178 176 176 177 179 181 183 185 188 187 186 186 186 186 186 186 184 183 182 181 182 183 184 186 188 189 191 192 190 190 190 186 184 185 184 178 171 167 170 175 180 184 183 176 172 184 319 350 357 4 17 17 11 7 8 12 17 23 26 27 26 25 22 18 13 10
168 169 170 170 169 170 172 172 175 179 181 181 185 187 185 180 178 178 178 177 177 177 178 180 181 182 184 186 185 184 185 187 187 188 188 188 187 185 184 185 187 188 191 194 195 197 198 199 199 197 193 191 190 189 187 181 178 181 188 194 196 196 198 201 213 244 269 283 300 354 7 8 9 9 12 19 23 24 26 26 26 25 22 18 13
166 167 168 168 169 172 174 174 175 178 180 182 185 186 184 179 177 177 177 177 178 179 179 180 181 182 183 185 185 184 185 185 187 189 191 192 192 191 191 191 191 192 194 197 199 201 203 204 203 201 199 197 198 199 196 190 188 190 195 200 202 201 209 216 223 242 265 272 278 322 355 3 6 9 12 18 22 23 25 24 23 23 23 21 18
163 167 169 170 171 173 174 174 176 177 180 183 184 184 183 180 178 178 178 177 179 180 179 179 180 182 183 184 184 185 186 186 188 191 194 197 198 198 197 196 195 197 199 199 201 204 206 207 206 204 201 200 203 207 202 193 193 195 199 205 206 208 228 243 245 257 277 276 276 310 340 351 359 4 7 11 14 17 19 20 19 18 19 19 19
163 167 170 171 173 174 174 174 176 178 181 184 184 183 183 181 179 179 179 178 178 177 178 179 180 180 182 183 183 184 187 188 190 191 193 197 201 202 204 203 201 202 205 207 208 209 208 208 209 208 207 208 211 212 201 195 195 200 206 212 214 221 249 268 265 264 275 279 280 306 330 340 349 356 359 2 5 5 7 11 13 12 12 14 16
165 166 168 171 173 175 175 174 176 179 182 184 184 182 182 181 180 180 180 178 177 174 174 178 179 179 182 183 183 184 187 190 192 193 194 195 197 201 205 207 206 207 210 213 216 217 215 212 212 212 212 212 212 211 207 203 202 207 214 218 222 234 257 274 269 260 269 281 281 294 316 329 338 344 349 353 356 356 357 359 2 4 6 7 10